Location: Escondido Hill
(38.9119°N, 104.7815°W)
Time: 14:04:05
(UTC-07:00)

N. Korean satellite - Pass Details

Date: 20 October 2019
Orbit: 456 x 506 km, 97.2° (Epoch: 12 November)

Event Time Altitude Azimuth Distance (km) Brightness Sun altitude
Rises 06:39:47 0° 15° (NNE) 2,554 10.3 -7.3°
Reaches altitude 10° 06:41:53 10° 20° (NNE) 1,678 9.5 -6.9°
Maximum altitude 06:45:27 58° 100° (E) 577 7.4 -6.2°
Drops below altitude 10° 06:49:02 10° 180° (S) 1,689 9.4 -5.5°
Sets 06:51:08 0° 185° (S) 2,574 10.3 -5.1°
